Voltar ao catálogo

STARLINK-32936

AtivoComunicaçõesVLEO
NORAD 63147·PAYLOAD·🇺🇸 United States

Lançado Mar 3, 2025 de Cape Canaveral Space Force Station

Loading…

Próximas Passagens (próximas 24 horas)

TLE

AtualizadoSource: CelesTrak SupGP

Época: Sep 15, 2026, 03:19 UTC

1 63147C 25043R   26258.13868056 -.00003967  00000+0 -14365-3 0  2581
2 63147  43.0035  33.1751 0001894 270.4463 208.8275 15.27587905    18

Acompanhe STARLINK-32936 em tempo real com AllMySat

Download on the App Store